Location: Unspecified
(38.9820°N, 94.4650°W)
Time: 17:37:28
(UTC-06:00)

Okean 3 - Visible Passes

Search period start: 17 February 2018 00:00
Search period end: 27 February 2018 00:00
Orbit: 576 x 603 km, 82.5° (Epoch: 16 February)

Date Brightness Start Highest point End Pass type
(mag) Time Alt. Az. Time Alt. Az. Time Alt. Az.
17 Feb 3.5 19:16:19 10° N 19:20:23 50° E 19:24:26 10° SSE visible
17 Feb 6.7 20:55:55 10° WNW 20:57:07 11° W 20:58:19 10° WSW visible
18 Feb 3.3 19:24:20 10° N 19:28:32 79° E 19:32:41 10° S visible
19 Feb 3.8 19:32:29 10° NNW 19:36:38 66° W 19:40:45 10° S visible
20 Feb 4.7 19:40:46 10° NNW 19:44:41 41° W 19:48:37 10° SSW visible
21 Feb 5.6 19:49:12 10° NNW 19:52:43 27° W 19:56:14 10° SSW visible
22 Feb 6.3 19:57:51 10° NW 20:00:43 18° W 20:03:33 10° SW visible
23 Feb 3.7 18:27:51 10° N 18:31:54 47° E 18:35:56 10° SSE visible
23 Feb 6.9 20:07:06 10° WNW 20:08:40 12° W 20:10:13 10° WSW visible
24 Feb 3.4 18:35:52 10° N 18:40:03 74° E 18:44:13 10° SSE visible
25 Feb 3.8 18:43:59 10° NNW 18:48:09 70° W 18:52:19 10° S visible
26 Feb 4.8 18:52:14 10° NNW 18:56:13 44° W 19:00:12 10° SSW visible
